Date String (YYYY-MM-DD hh:mm:ss) UTC,Instrument flags,Ambient pressure (hPa),Sample flow (lpm),Bypass flow (lpm),Sample temperature (°C),Ambient temperature (°C),ASC tube jacket temperature (°C),LED temperature (°C),Box temperature (°C),Sample RH (%),Span deviation,Mass concentration (μg/m³),Mass concentration (μg/m³),Mass concentration (μg/m³)
DateTimeUTC,F1_M11,P_M11,Q1_M11,Q2_M11,T1_M11,T2_M11,T3_M11,T4_M11,T5_M11,U1_M11,ZSPAN_M11,X0_M11,X2_M11,X1_M11
2022-08-12 14:00:00,,0832.6,4.99,0.00,29.7,28.4,00.0,38.5,31.6,27.4,0000.0,0013.70,0005.66,0004.88
2022-08-12 14:01:00,,0832.6,5.00,0.00,29.7,28.5,00.0,38.5,31.6,28.0,0000.0,0012.44,0005.62,0004.88
2022-08-12 14:02:00,,0832.6,5.01,0.00,29.7,28.6,00.0,38.5,31.6,28.6,0000.0,0012.26,0005.61,0004.87
2022-08-12 14:03:00,,0832.6,4.99,0.00,29.7,28.6,00.0,38.5,31.7,27.5,0000.0,0012.29,0005.61,0004.86
2022-08-12 14:04:00,,0832.6,5.00,0.00,29.7,28.7,00.0,38.5,31.7,26.9,0000.0,0011.94,0005.61,0004.86
2022-08-12 14:05:00,,0832.6,5.00,0.00,29.8,28.8,00.0,38.6,31.8,27.7,0000.0,0012.37,0005.64,0004.86
2022-08-12 14:06:00,,0832.6,5.00,0.00,29.8,28.8,00.0,38.6,31.8,27.8,0000.0,0012.58,0005.63,0004.85
2022-08-12 14:07:00,,0832.6,5.00,0.00,29.8,28.9,00.0,38.6,31.8,27.7,0000.0,0012.06,0005.60,0004.83
2022-08-12 14:08:00,,0832.6,4.99,0.00,29.9,28.9,00.0,38.6,31.9,27.7,0000.0,0012.23,0005.57,0004.84
2022-08-12 14:09:00,,0832.6,5.01,0.00,29.9,28.6,00.0,38.6,31.8,27.3,0000.0,0012.20,0005.61,0004.86
2022-08-12 14:10:00,,0832.6,4.99,0.00,29.8,27.9,00.0,38.6,31.6,28.1,0000.0,0011.42,0005.64,0004.85
2022-08-12 14:11:00,,0832.6,5.00,0.00,29.8,27.5,00.0,38.5,31.5,28.2,0000.0,0011.50,0005.70,0004.86
2022-08-12 14:12:00,,0832.6,5.00,0.00,29.7,27.5,00.0,38.5,31.5,28.5,0000.0,0011.65,0005.76,0004.87
2022-08-12 14:13:00,,0832.6,4.99,0.00,29.7,27.6,00.0,38.5,31.5,28.4,0000.0,0011.59,0005.78,0004.88
2022-08-12 14:14:00,,0832.6,4.99,0.00,29.7,27.7,00.0,38.5,31.5,29.5,0000.0,0011.66,0005.76,0004.87
2022-08-12 14:15:00,,0832.7,5.01,0.00,29.6,27.9,00.0,38.5,31.5,29.1,0000.0,0011.92,0005.75,0004.88
2022-08-12 14:16:00,,0832.7,4.99,0.00,29.6,28.0,00.0,38.5,31.5,29.4,0000.0,0012.07,0005.73,0004.86
2022-08-12 14:17:00,,0832.7,5.02,0.00,29.6,28.1,00.0,38.5,31.5,29.6,0000.0,0011.94,0005.70,0004.87
2022-08-12 14:18:00,,0832.7,5.00,0.00,29.7,28.2,00.0,38.5,31.5,28.5,0000.0,0012.38,0005.74,0004.87
2022-08-12 14:19:00,,0832.7,5.01,0.00,29.7,28.3,00.0,38.5,31.6,28.2,0000.0,0011.92,0005.79,0004.87
2022-08-12 14:20:00,,0832.7,5.00,0.00,29.7,28.4,00.0,38.5,31.6,28.2,0000.0,0011.93,0005.80,0004.87
2022-08-12 14:21:00,,0832.7,4.99,0.00,29.7,28.5,00.0,38.5,31.6,28.8,0000.0,0012.05,0005.83,0004.88
2022-08-12 14:22:00,,0832.7,5.00,0.00,29.7,28.6,00.0,38.5,31.7,28.6,0000.0,0011.85,0005.80,0004.87
2022-08-12 14:23:00,,0832.7,5.00,0.00,29.8,28.7,00.0,38.5,31.7,28.6,0000.0,0011.72,0005.73,0004.85
2022-08-12 14:24:00,,0832.8,5.00,0.00,29.8,28.7,00.0,38.6,31.7,28.8,0000.0,0012.09,0005.73,0004.84
2022-08-12 14:25:00,,0832.8,5.00,0.00,29.8,28.8,00.0,38.6,31.7,28.9,0000.0,0012.31,0005.80,0004.86
2022-08-12 14:26:00,,0832.8,5.00,0.00,29.8,28.8,00.0,38.6,31.7,29.3,0000.0,0012.20,0005.85,0004.85
2022-08-12 14:27:00,,0832.7,5.01,0.00,29.8,28.4,00.0,38.5,31.7,28.9,0000.0,0011.78,0005.86,0004.87
2022-08-12 14:28:00,,0832.7,5.01,0.00,29.8,27.7,00.0,38.5,31.4,28.9,0000.0,0011.63,0005.91,0004.87
2022-08-12 14:29:00,,0832.7,5.00,0.00,29.7,27.5,00.0,38.5,31.4,28.7,0000.0,0011.08,0005.88,0004.87
2022-08-12 14:30:00,,0832.7,5.00,0.00,29.7,27.6,00.0,38.5,31.4,28.8,0000.0,0011.50,0005.91,0004.86
2022-08-12 14:31:00,,0832.7,4.98,0.00,29.6,27.7,00.0,38.5,31.4,29.4,0000.0,0011.91,0005.91,0004.86
2022-08-12 14:32:00,,0832.8,5.01,0.00,29.6,27.8,00.0,38.5,31.4,28.6,0000.0,0012.04,0005.90,0004.86
2022-08-12 14:33:00,,0832.8,5.00,0.00,29.6,27.9,00.0,38.5,31.5,29.2,0000.0,0012.18,0005.92,0004.84
2022-08-12 14:34:00,,0832.8,5.00,0.00,29.6,28.1,00.0,38.5,31.5,29.0,0000.0,0012.20,0005.92,0004.84
2022-08-12 14:35:00,,0832.8,5.01,0.00,29.6,28.2,00.0,38.5,31.5,29.2,0000.0,0012.75,0005.90,0004.84
2022-08-12 14:36:00,,0832.7,4.99,0.00,29.7,28.3,00.0,38.5,31.6,29.8,0000.0,0012.53,0005.87,0004.83
2022-08-12 14:37:00,,0832.8,5.00,0.00,29.7,28.4,00.0,38.5,31.6,29.4,0000.0,0012.92,0005.85,0004.82
2022-08-12 14:38:00,,0832.7,5.00,0.00,29.7,28.5,00.0,38.5,31.6,30.0,0000.0,0013.07,0005.84,0004.81
2022-08-12 14:39:00,,0832.8,5.01,0.00,29.7,28.6,00.0,38.5,31.7,30.3,0000.0,0013.11,0005.84,0004.80
2022-08-12 14:40:00,,0832.8,5.01,0.00,29.7,28.7,00.0,38.5,31.7,30.4,0000.0,0013.05,0005.90,0004.81
2022-08-12 14:41:00,,0832.8,5.00,0.00,29.8,28.7,00.0,38.5,31.7,30.2,0000.0,0012.56,0005.85,0004.82
2022-08-12 14:42:00,,0832.8,5.00,0.00,29.8,28.8,00.0,38.5,31.8,30.4,0000.0,0012.26,0005.84,0004.80
2022-08-12 14:43:00,,0832.8,5.00,0.00,29.8,28.6,00.0,38.5,31.7,29.8,0000.0,0012.43,0005.83,0004.80
2022-08-12 14:44:00,,0832.8,4.99,0.00,29.8,28.0,00.0,38.5,31.6,28.9,0000.0,0012.61,0005.82,0004.79
2022-08-12 14:45:00,,0832.8,5.00,0.00,29.7,27.6,00.0,38.5,31.5,28.5,0000.0,0013.37,0005.82,0004.79
2022-08-12 14:46:00,,0832.8,5.01,0.00,29.7,27.6,00.0,38.5,31.4,29.7,0000.0,0012.62,0005.81,0004.81
2022-08-12 14:47:00,,0832.8,4.99,0.00,29.6,27.7,00.0,38.5,31.4,29.8,0000.0,0012.71,0005.81,0004.82
2022-08-12 14:48:00,,0832.8,5.01,0.00,29.6,27.8,00.0,38.5,31.4,30.2,0000.0,0012.89,0005.84,0004.84
2022-08-12 14:49:00,,0832.8,5.00,0.00,29.6,27.9,00.0,38.5,31.5,30.2,0000.0,0013.24,0005.87,0004.86
2022-08-12 14:50:00,,0832.8,5.02,0.00,29.6,28.1,00.0,38.5,31.5,30.5,0000.0,0013.13,0005.84,0004.86
2022-08-12 14:51:00,,0832.8,5.00,0.00,29.6,28.2,00.0,38.5,31.5,31.2,0000.0,0013.08,0005.80,0004.87
2022-08-12 14:52:00,,0832.8,5.00,0.00,29.7,28.3,00.0,38.5,31.6,30.9,0000.0,0013.87,0005.85,0004.88
2022-08-12 14:53:00,,0832.8,5.00,0.00,29.7,28.4,00.0,38.5,31.6,30.0,0000.0,0014.43,0005.86,0004.90
2022-08-12 14:54:00,,0832.8,5.01,0.00,29.7,28.5,00.0,38.5,31.6,29.5,0000.0,0015.19,0005.88,0004.90
2022-08-12 14:55:00,,0832.8,5.00,0.00,29.7,28.6,00.0,38.5,31.7,30.2,0000.0,0016.67,0005.90,0004.90
2022-08-12 14:56:00,,0832.8,5.00,0.00,29.8,28.7,00.0,38.5,31.7,28.3,0000.0,0016.43,0005.87,0004.89
2022-08-12 14:57:00,,0832.8,5.01,0.00,29.8,28.7,00.0,38.5,31.7,28.6,0000.0,0016.22,0005.86,0004.86
2022-08-12 14:58:00,,0832.8,4.99,0.00,29.8,28.3,00.0,38.5,31.7,29.2,0000.0,0016.18,0005.87,0004.85
2022-08-12 14:59:00,,0832.8,5.01,0.00,29.7,27.8,00.0,38.5,31.6,28.8,0000.0,0015.55,0005.82,0004.82
